This demonstration page uses our WeatherBlox Daily Observations layout. Learn more.

Left ArrowRight Arrow

Hourly Observations for September 7, 2018

Temp ( °F °C ) Dew Point ( °F °C ) Humidity (%) Winds ( mph kmh ) Pressure ( in mb ) Visibility ( mi km ) Precip ( " mm )
12:38 am 00:38 Mostly Cloudy 68 20 62 16.7 81 81 ENE 8 13 30.21 1023 10 16 N/A
12:54 am 00:54 Cloudy 68 20 62 16.7 81 81 ENE 8 13 30.21 1023 10 16 N/A
1:33 am 01:33 Cloudy 68 20 63 17.2 84 84 ENE 7 11 30.21 1023 10 16 N/A
1:54 am 01:54 Cloudy 67 19.4 63 17.2 87 87 E 8 13 30.21 1023 10 16 N/A
2:05 am 02:05 Cloudy 67 19.4 63 17.2 87 87 ENE 10 17 30.21 1023 8 13 N/A
2:54 am 02:54 Cloudy 67 19.4 64 17.8 91 91 NE 8 13 30.20 1023 9 14 N/A
3:06 am 03:06 Cloudy with Mist and Fog 66 18.9 64 17.8 93 93 NE 8 13 30.24 1024 6 10 N/A
3:54 am 03:54 Cloudy 66 18.9 64 17.8 93 93 NE 8 13 30.19 1023 10 16 N/A
4:54 am 04:54 Cloudy 66 18.9 64 17.8 93 93 NE 9 15 30.18 1022 7 11 N/A
7:46 am 07:46 Partly Cloudy with Mist and Fog 65 18.3 63 17.2 93 93 NE 9 15 30.21 1023 2 3 N/A
7:54 am 07:54 Partly Cloudy with Mist and Fog 65 18.3 63 17.2 93 93 NE 8 13 30.18 1022 3 5 N/A
8:07 am 08:07 Cloudy with Mist and Fog 65 18.3 63 17.2 93 93 NE 10 17 30.21 1023 4 6 N/A
8:54 am 08:54 Cloudy 66 18.9 63 17.2 90 90 NE 9 15 30.18 1022 10 16 N/A
9:54 am 09:54 Cloudy 66 18.9 63 17.2 90 90 NE 13 20 30.20 1023 10 16 N/A
10:47 am 10:47 Cloudy 66 18.9 61 16.1 84 84 ENE 14 22 30.24 1024 10 16 N/A
10:54 am 10:54 Cloudy 66 18.9 61 16.1 84 84 NE 14 22 30.21 1023 10 16 N/A
11:16 am 11:16 Cloudy 66 18.9 62 16.7 87 87 NE 14 22 30.18 1022 10 16 N/A
11:54 am 11:54 Cloudy with Mist and Fog 65 18.3 62 16.7 90 90 ENE 12 19 30.21 1023 5 8 N/A
12:54 pm 12:54 Cloudy with Mist and Fog 66 18.9 63 17.2 90 90 NE 13 20 30.19 1023 3 5 N/A
1:54 pm 13:54 Cloudy with Mist and Fog 66 18.9 62 16.7 87 87 ENE 14 22 30.19 1022 3 5 N/A
2:54 pm 14:54 Cloudy with Light Rain 65 18.3 63 17.2 93 93 ENE 7 11 30.19 1022 3 5 0.01 0.25
3:00 pm 15:00 Cloudy with Light Rain 65 18.3 63 17.2 93 93 NE 9 15 30.21 1023 2 3 N/A
3:07 pm 15:07 Cloudy with Light Rain 65 18.3 63 17.2 93 93 NE 12 19 30.21 1023 3 5 N/A
3:54 pm 15:54 Cloudy with Mist and Fog 64 17.8 61 16.1 90 90 ENE 13 20 30.19 1022 3 5 0.01 0.25
4:54 pm 16:54 Cloudy with Mist and Fog 65 18.3 61 16.1 87 87 ENE 13 20 30.18 1022 3 5 N/A
5:30 pm 17:30 Cloudy 65 18.3 61 16.1 87 87 ENE 9 15 30.18 1022 10 16 N/A
5:54 pm 17:54 Sunny 65 18.3 61 16.1 87 87 NE 10 17 30.17 1022 10 16 N/A
6:03 pm 18:03 Cloudy 65 18.3 61 16.1 87 87 NE 7 11 30.18 1022 10 16 N/A
6:54 pm 18:54 Cloudy 66 18.9 62 16.7 87 87 NE 7 11 30.15 1021 10 16 N/A
7:26 pm 19:26 Cloudy 66 18.9 62 16.7 87 87 NE 7 11 30.15 1021 10 16 N/A
7:52 pm 19:52 Cloudy 66 19 63 17 88 88 NNE 7 11 30.15 1021 10 16 N/A
7:54 pm 19:54 Cloudy 66 18.9 62 16.7 87 87 NNE 7 11 30.17 1022 10 16 N/A
8:54 pm 20:54 Cloudy 65 18.3 58 14.4 78 78 NNE 9 15 30.18 1022 10 16 N/A
9:54 pm 21:54 Cloudy 64 17.8 58 14.4 81 81 NE 10 17 30.20 1023 10 16 N/A
10:32 pm 22:32 Cloudy 64 17.8 57 13.9 78 78 NE 6 9 30.21 1023 10 16 N/A
10:54 pm 22:54 Cloudy 64 17.8 58 14.4 81 81 NNE 5 7 30.20 1023 10 16 N/A
11:54 pm 23:54 Cloudy 64 17.8 58 14.4 81 81 NE 3 6 30.19 1023 10 16 N/A

Powered by AerisWeather